#Datum;Uhrzeit;WR;Pac;DaySum;Status;WR;Pac;DaySum;Status;Pdc1;Udc;Temp;WR;Pac;DaySum;Status;Pdc1;Udc;Temp;WR;Pac;DaySum;Status;Pdc1;Udc;Temp;WR;Pac;DaySum;Status;Pdc1;Pdc2;Udc1;Udc2;Temp;WR;Pac;DaySum;Status;Pdc1;Pdc2;Udc1;Udc2;Temp;WR;Pac;DaySum;Status;Pdc1;Udc;Temp;WR;Pac;DaySum;Status;Pdc1;Udc;Temp;WR;Pac;DaySum;Status;Pdc1;Udc;Temp
28.01.19;23:55:00;1;238;13065;0;2;0;5430;0;0;0;0;3;0;3371;0;0;0;0;4;0;4577;0;0;0;0;5;0;9145;0;0;0;0;0;0;6;0;7396;0;0;0;0;0;0;7;0;6097;0;0;0;0;8;0;6045;0;0;0;0;9;0;3225;0;0;0;0
28.01.19;23:50:00;1;230;13045;0;2;0;5430;0;0;0;0;3;0;3371;0;0;0;0;4;0;4577;0;0;0;0;5;0;9145;0;0;0;0;0;0;6;0;7396;0;0;0;0;0;0;7;0;6097;0;0;0;0;8;0;6045;0;0;0;0;9;0;3225;0;0;0;0
28.01.19;23:45:00;1;426;13011;0;2;0;5430;0;0;0;0;3;0;3371;0;0;0;0;4;0;4577;0;0;0;0;5;0;9145;0;0;0;0;0;0;6;0;7396;0;0;0;0;0;0;7;0;6097;0;0;0;0;8;0;6045;0;0;0;0;9;0;3225;0;0;0;0
28.01.19;23:40:00;1;225;12982;0;2;0;5430;0;0;0;0;3;0;3371;0;0;0;0;4;0;4577;0;0;0;0;5;0;9145;0;0;0;0;0;0;6;0;7396;0;0;0;0;0;0;7;0;6097;0;0;0;0;8;0;6045;0;0;0;0;9;0;3225;0;0;0;0
28.01.19;23:35:00;1;428;12964;0;2;0;5430;0;0;0;0;3;0;3371;0;0;0;0;4;0;4577;0;0;0;0;5;0;9145;0;0;0;0;0;0;6;0;7396;0;0;0;0;0;0;7;0;6097;0;0;0;0;8;0;6045;0;0;0;0;9;0;3225;0;0;0;0
28.01.19;23:30:00;1;225;12920;0;2;0;5430;0;0;0;0;3;0;3371;0;0;0;0;4;0;4577;0;0;0;0;5;0;9145;0;0;0;0;0;0;6;0;7396;0;0;0;0;0;0;7;0;6097;0;0;0;0;8;0;6045;0;0;0;0;9;0;3225;0;0;0;0
28.01.19;23:25:00;1;261;12901;0;2;0;5430;0;0;0;0;3;0;3371;0;0;0;0;4;0;4577;0;0;0;0;5;0;9145;0;0;0;0;0;0;6;0;7396;0;0;0;0;0;0;7;0;6097;0;0;0;0;8;0;6045;0;0;0;0;9;0;3225;0;0;0;0
28.01.19;23:20:00;1;674;12879;0;2;0;5430;0;0;0;0;3;0;3371;0;0;0;0;4;0;4577;0;0;0;0;5;0;9145;0;0;0;0;0;0;6;0;7396;0;0;0;0;0;0;7;0;6097;0;0;0;0;8;0;6045;0;0;0;0;9;0;3225;0;0;0;0
28.01.19;23:15:00;1;339;12826;0;2;0;5430;0;0;0;0;3;0;3371;0;0;0;0;4;0;4577;0;0;0;0;5;0;9145;0;0;0;0;0;0;6;0;7396;0;0;0;0;0;0;7;0;6097;0;0;0;0;8;0;6045;0;0;0;0;9;0;3225;0;0;0;0
28.01.19;23:10:00;1;411;12798;0;2;0;5430;0;0;0;0;3;0;3371;0;0;0;0;4;0;4577;0;0;0;0;5;0;9145;0;0;0;0;0;0;6;0;7396;0;0;0;0;0;0;7;0;6097;0;0;0;0;8;0;6045;0;0;0;0;9;0;3225;0;0;0;0
28.01.19;23:05:00;1;658;12764;0;2;0;5430;0;0;0;0;3;0;3371;0;0;0;0;4;0;4577;0;0;0;0;5;0;9145;0;0;0;0;0;0;6;0;7396;0;0;0;0;0;0;7;0;6097;0;0;0;0;8;0;6045;0;0;0;0;9;0;3225;0;0;0;0
28.01.19;23:00:00;1;431;12702;0;2;0;5430;0;0;0;0;3;0;3371;0;0;0;0;4;0;4577;0;0;0;0;5;0;9145;0;0;0;0;0;0;6;0;7396;0;0;0;0;0;0;7;0;6097;0;0;0;0;8;0;6045;0;0;0;0;9;0;3225;0;0;0;0
28.01.19;22:55:00;1;380;12666;0;2;0;5430;0;0;0;0;3;0;3371;0;0;0;0;4;0;4577;0;0;0;0;5;0;9145;2;0;0;0;0;0;6;0;7396;2;0;0;0;0;0;7;0;6097;0;0;0;0;8;0;6045;0;0;0;0;9;0;3225;0;0;0;0
28.01.19;22:50:00;1;893;12637;0;2;0;5430;0;0;0;0;3;0;3371;0;0;0;0;4;0;4577;0;0;0;0;5;0;9145;2;0;0;0;0;0;6;0;7396;2;0;0;0;0;0;7;0;6097;0;0;0;0;8;0;6045;0;0;0;0;9;0;3225;0;0;0;0
28.01.19;22:45:00;1;505;12576;0;2;0;5430;0;0;0;0;3;0;3371;0;0;0;0;4;0;4577;0;0;0;0;5;0;9145;2;0;0;0;0;0;6;0;7396;2;0;0;0;0;0;7;0;6097;0;0;0;0;8;0;6045;0;0;0;0;9;0;3225;0;0;0;0
28.01.19;22:40:00;1;510;12534;0;2;0;5430;0;0;0;0;3;0;3371;0;0;0;0;4;0;4577;0;0;0;0;5;0;9145;2;0;0;0;0;0;6;0;7396;2;0;0;0;0;0;7;0;6097;0;0;0;0;8;0;6045;0;0;0;0;9;0;3225;0;0;0;0
28.01.19;22:35:00;1;715;12491;0;2;0;5430;0;0;0;0;3;0;3371;0;0;0;0;4;0;4577;0;0;0;0;5;0;9145;2;0;0;0;0;0;6;0;7396;2;0;0;0;0;0;7;0;6097;0;0;0;0;8;0;6045;0;0;0;0;9;0;3225;0;0;0;0
28.01.19;22:30:00;1;510;12424;0;2;0;5430;0;0;0;0;3;0;3371;0;0;0;0;4;0;4577;0;0;0;0;5;0;9145;2;0;0;0;0;0;6;0;7396;2;0;0;0;0;0;7;0;6097;0;0;0;0;8;0;6045;0;0;0;0;9;0;3225;0;0;0;0
28.01.19;22:25:00;1;535;12381;0;2;0;5430;0;0;0;0;3;0;3371;0;0;0;0;4;0;4577;0;0;0;0;5;0;9145;2;0;0;0;0;0;6;0;7396;2;0;0;0;0;0;7;0;6097;0;0;0;0;8;0;6045;0;0;0;0;9;0;3225;0;0;0;0
28.01.19;22:20:00;1;909;12336;0;2;0;5430;0;0;0;0;3;0;3371;0;0;0;0;4;0;4577;0;0;0;0;5;0;9145;2;0;0;0;0;0;6;0;7396;2;0;0;0;0;0;7;0;6097;0;0;0;0;8;0;6045;0;0;0;0;9;0;3225;0;0;0;0
28.01.19;22:15:00;1;511;12265;0;2;0;5430;0;0;0;0;3;0;3371;0;0;0;0;4;0;4577;0;0;0;0;5;0;9145;2;0;0;0;0;0;6;0;7396;2;0;0;0;0;0;7;0;6097;0;0;0;0;8;0;6045;0;0;0;0;9;0;3225;0;0;0;0
28.01.19;22:10:00;1;436;12223;0;2;0;5430;0;0;0;0;3;0;3371;0;0;0;0;4;0;4577;0;0;0;0;5;0;9145;2;0;0;0;0;0;6;0;7396;2;0;0;0;0;0;7;0;6097;0;0;0;0;8;0;6045;0;0;0;0;9;0;3225;0;0;0;0
28.01.19;22:05:00;1;638;12187;0;2;0;5430;0;0;0;0;3;0;3371;0;0;0;0;4;0;4577;0;0;0;0;5;0;9145;2;0;0;0;0;0;6;0;7396;2;0;0;0;0;0;7;0;6097;0;0;0;0;8;0;6045;0;0;0;0;9;0;3225;0;0;0;0
28.01.19;22:00:00;1;446;12126;0;2;0;5430;0;0;0;0;3;0;3371;0;0;0;0;4;0;4577;0;0;0;0;5;0;9145;2;0;0;0;0;0;6;0;7396;2;0;0;0;0;0;7;0;6097;0;0;0;0;8;0;6045;0;0;0;0;9;0;3225;0;0;0;0
28.01.19;21:55:00;1;474;12088;0;2;0;5430;0;0;0;0;3;0;3371;0;0;0;0;4;0;4577;0;0;0;0;5;0;9145;2;0;0;0;0;0;6;0;7396;2;0;0;0;0;0;7;0;6097;0;0;0;0;8;0;6045;0;0;0;0;9;0;3225;0;0;0;0
28.01.19;21:50:00;1;835;12048;0;2;0;5430;0;0;0;0;3;0;3371;0;0;0;0;4;0;4577;0;0;0;0;5;0;9145;2;0;0;0;0;0;6;0;7396;2;0;0;0;0;0;7;0;6097;0;0;0;0;8;0;6045;0;0;0;0;9;0;3225;0;0;0;0
28.01.19;21:45:00;1;499;11983;0;2;0;5430;0;0;0;0;3;0;3371;0;0;0;0;4;0;4577;0;0;0;0;5;0;9145;2;0;0;0;0;0;6;0;7396;2;0;0;0;0;0;7;0;6097;0;0;0;0;8;0;6045;0;0;0;0;9;0;3225;0;0;0;0
28.01.19;21:40:00;1;587;11942;0;2;0;5430;0;0;0;0;3;0;3371;0;0;0;0;4;0;4577;0;0;0;0;5;0;9145;2;0;0;0;0;0;6;0;7396;2;0;0;0;0;0;7;0;6097;0;0;0;0;8;0;6045;0;0;0;0;9;0;3225;0;0;0;0
28.01.19;21:35:00;1;795;11892;0;2;0;5430;0;0;0;0;3;0;3371;0;0;0;0;4;0;4577;0;0;0;0;5;0;9145;2;0;0;0;0;0;6;0;7396;2;0;0;0;0;0;7;0;6097;0;0;0;0;8;0;6045;0;0;0;0;9;0;3225;0;0;0;0
28.01.19;21:30:00;1;601;11818;0;2;0;5430;0;0;0;0;3;0;3371;0;0;0;0;4;0;4577;0;0;0;0;5;0;9145;2;0;0;0;0;0;6;0;7396;2;0;0;0;0;0;7;0;6097;0;0;0;0;8;0;6045;0;0;0;0;9;0;3225;0;0;0;0
28.01.19;21:25:00;1;642;11768;0;2;0;5430;0;0;0;0;3;0;3371;0;0;0;0;4;0;4577;0;0;0;0;5;0;9145;2;0;0;0;0;0;6;0;7396;2;0;0;0;0;0;7;0;6097;0;0;0;0;8;0;6045;0;0;0;0;9;0;3225;0;0;0;0
28.01.19;21:20:00;1;989;11714;0;2;0;5430;0;0;0;0;3;0;3371;0;0;0;0;4;0;4577;0;0;0;0;5;0;9145;2;0;0;0;0;0;6;0;7396;2;0;0;0;0;0;7;0;6097;0;0;0;0;8;0;6045;0;0;0;0;9;0;3225;0;0;0;0
28.01.19;21:15:00;1;659;11636;0;2;0;5430;0;0;0;0;3;0;3371;0;0;0;0;4;0;4577;0;0;0;0;5;0;9145;2;0;0;0;0;0;6;0;7396;2;0;0;0;0;0;7;0;6097;0;0;0;0;8;0;6045;0;0;0;0;9;0;3225;0;0;0;0
28.01.19;21:10:00;1;594;11584;0;2;0;5430;0;0;0;0;3;0;3371;0;0;0;0;4;0;4577;0;0;0;0;5;0;9145;2;0;0;0;0;0;6;0;7396;2;0;0;0;0;0;7;0;6097;0;0;0;0;8;0;6045;0;0;0;0;9;0;3225;0;0;0;0
28.01.19;21:05:00;1;799;11535;0;2;0;5430;0;0;0;0;3;0;3371;0;0;0;0;4;0;4577;0;0;0;0;5;0;9145;2;0;0;0;0;0;6;0;7396;2;0;0;0;0;0;7;0;6097;0;0;0;0;8;0;6045;0;0;0;0;9;0;3225;0;0;0;0
28.01.19;21:00:00;1;594;11460;0;2;0;5430;0;0;0;0;3;0;3371;0;0;0;0;4;0;4577;0;0;0;0;5;0;9145;2;0;0;0;0;0;6;0;7396;2;0;0;0;0;0;7;0;6097;0;0;0;0;8;0;6045;0;0;0;0;9;0;3225;0;0;0;0
28.01.19;20:55:00;1;594;11411;0;2;0;5430;0;0;0;0;3;0;3371;0;0;0;0;4;0;4577;0;0;0;0;5;0;9145;2;0;0;0;0;0;6;0;7396;2;0;0;0;0;0;7;0;6097;0;0;0;0;8;0;6045;0;0;0;0;9;0;3225;0;0;0;0
28.01.19;20:50:00;1;957;11361;0;2;0;5430;0;0;0;0;3;0;3371;0;0;0;0;4;0;4577;0;0;0;0;5;0;9145;2;0;0;0;0;0;6;0;7396;2;0;0;0;0;0;7;0;6097;0;0;0;0;8;0;6045;0;0;0;0;9;0;3225;0;0;0;0
28.01.19;20:45:00;1;615;11287;0;2;0;5430;0;0;0;0;3;0;3371;0;0;0;0;4;0;4577;0;0;0;0;5;0;9145;2;0;0;0;0;0;6;0;7396;2;0;0;0;0;0;7;0;6097;0;0;0;0;8;0;6045;0;0;0;0;9;0;3225;0;0;0;0
28.01.19;20:40:00;1;698;11235;0;2;0;5430;0;0;0;0;3;0;3371;0;0;0;0;4;0;4577;0;0;0;0;5;0;9145;2;0;0;0;0;0;6;0;7396;2;0;0;0;0;0;7;0;6097;0;0;0;0;8;0;6045;0;0;0;0;9;0;3225;0;0;0;0
28.01.19;20:35:00;1;901;11177;0;2;0;5430;0;0;0;0;3;0;3371;0;0;0;0;4;0;4577;0;0;0;0;5;0;9145;2;0;0;0;0;0;6;0;7396;2;0;0;0;0;0;7;0;6097;0;0;0;0;8;0;6045;0;0;0;0;9;0;3225;0;0;0;0
28.01.19;20:30:00;1;698;11095;0;2;0;5430;0;0;0;0;3;0;3371;0;0;0;0;4;0;4577;0;0;0;0;5;0;9145;2;0;0;0;0;0;6;0;7396;2;0;0;0;0;0;7;0;6097;0;0;0;0;8;0;6045;0;0;0;0;9;0;3225;0;0;0;0
28.01.19;20:25:00;1;731;11036;0;2;0;5430;0;0;0;0;3;0;3371;0;0;0;0;4;0;4577;0;0;0;0;5;0;9145;2;0;0;0;0;0;6;0;7396;2;0;0;0;0;0;7;0;6097;0;0;0;0;8;0;6045;0;0;0;0;9;0;3225;0;0;0;0
28.01.19;20:20:00;1;1168;10974;0;2;0;5430;0;0;0;0;3;0;3371;0;0;0;0;4;0;4577;0;0;0;0;5;0;9145;2;0;0;0;0;0;6;0;7396;2;0;0;0;0;0;7;0;6097;0;0;0;0;8;0;6045;0;0;0;0;9;0;3225;0;0;0;0
28.01.19;20:15:00;1;757;10887;0;2;0;5430;0;0;0;0;3;0;3371;0;0;0;0;4;0;4577;0;0;0;0;5;0;9145;2;0;0;0;0;0;6;0;7396;2;0;0;0;0;0;7;0;6097;0;0;0;0;8;0;6045;0;0;0;0;9;0;3225;0;0;0;0
28.01.19;20:10:00;1;757;10824;0;2;0;5430;0;0;0;0;3;0;3371;0;0;0;0;4;0;4577;0;0;0;0;5;0;9145;2;0;0;0;0;0;6;0;7396;2;0;0;0;0;0;7;0;6097;0;0;0;0;8;0;6045;0;0;0;0;9;0;3225;0;0;0;0
28.01.19;20:05:00;1;1086;10762;0;2;0;5430;0;0;0;0;3;0;3371;0;0;0;0;4;0;4577;0;0;0;0;5;0;9145;2;0;0;0;0;0;6;0;7396;2;0;0;0;0;0;7;0;6097;0;0;0;0;8;0;6045;0;0;0;0;9;0;3225;0;0;0;0
28.01.19;20:00:00;1;698;10680;0;2;0;5430;0;0;0;0;3;0;3371;0;0;0;0;4;0;4577;0;0;0;0;5;0;9145;2;0;0;0;0;0;6;0;7396;2;0;0;0;0;0;7;0;6097;0;0;0;0;8;0;6045;0;0;0;0;9;0;3225;0;0;0;0
28.01.19;19:55:00;1;699;10622;0;2;0;5430;0;0;0;0;3;0;3371;0;0;0;0;4;0;4577;0;0;0;0;5;0;9145;2;0;0;0;0;0;6;0;7396;2;0;0;0;0;0;7;0;6097;0;0;0;0;8;0;6045;0;0;0;0;9;0;3225;0;0;0;0
28.01.19;19:50:00;1;1063;10564;0;2;0;5430;0;0;0;0;3;0;3371;0;0;0;0;4;0;4577;0;0;0;0;5;0;9145;2;0;0;0;0;0;6;0;7396;2;0;0;0;0;0;7;0;6097;0;0;0;0;8;0;6045;0;0;0;0;9;0;3225;0;0;0;0
28.01.19;19:45:00;1;707;10480;0;2;0;5430;0;0;0;0;3;0;3371;0;0;0;0;4;0;4577;0;0;0;0;5;0;9145;2;0;0;0;0;0;6;0;7396;2;0;0;0;0;0;7;0;6097;0;0;0;0;8;0;6045;0;0;0;0;9;0;3225;0;0;0;0
28.01.19;19:40:00;1;717;10420;0;2;0;5430;0;0;0;0;3;0;3371;0;0;0;0;4;0;4577;0;0;0;0;5;0;9145;2;0;0;0;0;0;6;0;7396;2;0;0;0;0;0;7;0;6097;0;0;0;0;8;0;6045;0;0;0;0;9;0;3225;0;0;0;0
28.01.19;19:35:00;1;1030;10361;0;2;0;5430;0;0;0;0;3;0;3371;0;0;0;0;4;0;4577;0;0;0;0;5;0;9145;2;0;0;0;0;0;6;0;7396;2;0;0;0;0;0;7;0;6097;0;0;0;0;8;0;6045;0;0;0;0;9;0;3225;0;0;0;0
28.01.19;19:30:00;1;604;10286;0;2;0;5430;0;0;0;0;3;0;3371;0;0;0;0;4;0;4577;0;0;0;0;5;0;9145;2;0;0;0;0;0;6;0;7396;2;0;0;0;0;0;7;0;6097;0;0;0;0;8;0;6045;0;0;0;0;9;0;3225;0;0;0;0
28.01.19;19:25:00;1;648;10235;0;2;0;5430;0;0;0;0;3;0;3371;0;0;0;0;4;0;4577;0;0;0;0;5;0;9145;2;0;0;0;0;0;6;0;7396;2;0;0;0;0;0;7;0;6097;0;0;0;0;8;0;6045;0;0;0;0;9;0;3225;0;0;0;0
28.01.19;19:20:00;1;776;10179;0;2;0;5430;0;0;0;0;3;0;3371;0;0;0;0;4;0;4577;0;0;0;0;5;0;9145;2;0;0;0;0;0;6;0;7396;2;0;0;0;0;0;7;0;6097;0;0;0;0;8;0;6045;0;0;0;0;9;0;3225;0;0;0;0
28.01.19;19:15:00;1;580;10105;0;2;0;5430;0;0;0;0;3;0;3371;0;0;0;0;4;0;4577;0;0;0;0;5;0;9145;2;0;0;0;0;0;6;0;7396;2;0;0;0;0;0;7;0;6097;0;0;0;0;8;0;6045;0;0;0;0;9;0;3225;0;0;0;0
28.01.19;19:10:00;1;471;10056;0;2;0;5430;0;0;0;0;3;0;3371;0;0;0;0;4;0;4577;0;0;0;0;5;0;9145;2;0;0;0;0;0;6;0;7396;2;0;0;0;0;0;7;0;6097;0;0;0;0;8;0;6045;0;0;0;0;9;0;3225;0;0;0;0
28.01.19;19:05:00;1;731;10018;0;2;0;5430;0;0;0;0;3;0;3371;0;0;0;0;4;0;4577;0;0;0;0;5;0;9145;2;0;0;0;0;0;6;0;7396;2;0;0;0;0;0;7;0;6097;0;0;0;0;8;0;6045;0;0;0;0;9;0;3225;0;0;0;0
28.01.19;19:00:00;1;312;9966;0;2;0;5430;0;0;0;0;3;0;3371;0;0;0;0;4;0;4577;0;0;0;0;5;0;9145;2;0;0;0;0;0;6;0;7396;2;0;0;0;0;0;7;0;6097;0;0;0;0;8;0;6045;0;0;0;0;9;0;3225;0;0;0;0
28.01.19;18:55:00;1;312;9940;0;2;0;5430;0;0;0;0;3;0;3371;0;0;0;0;4;0;4577;0;0;0;0;5;0;9145;2;0;0;0;0;0;6;0;7396;2;0;0;0;0;0;7;0;6097;0;0;0;0;8;0;6045;0;0;0;0;9;0;3225;0;0;0;0
28.01.19;18:50:00;1;518;9914;0;2;0;5430;0;0;0;0;3;0;3371;0;0;0;0;4;0;4577;0;0;0;0;5;0;9145;2;0;0;0;0;0;6;0;7396;2;0;0;0;0;0;7;0;6097;0;0;0;0;8;0;6045;0;0;0;0;9;0;3225;0;0;0;0
28.01.19;18:45:00;1;312;9864;0;2;0;5430;0;0;0;0;3;0;3371;0;0;0;0;4;0;4577;0;0;0;0;5;0;9145;2;0;0;0;0;0;6;0;7396;2;0;0;0;0;0;7;0;6097;0;0;0;0;8;0;6045;0;0;0;0;9;0;3225;0;0;0;0
28.01.19;18:40:00;1;335;9838;0;2;0;5430;0;0;0;0;3;0;3371;0;0;0;0;4;0;4577;0;0;0;0;5;0;9145;2;0;0;0;0;0;6;0;7396;2;0;0;0;0;0;7;0;6097;0;0;0;0;8;0;6045;0;0;0;0;9;0;3225;0;0;0;0
28.01.19;18:35:00;1;788;9809;0;2;0;5430;0;0;0;0;3;0;3371;0;0;0;0;4;0;4577;0;0;0;0;5;0;9145;2;0;0;0;0;0;6;0;7396;2;0;0;0;0;0;7;0;6097;0;0;0;0;8;0;6045;0;0;0;0;9;0;3225;0;0;0;0
28.01.19;18:30:00;1;381;9754;0;2;0;5430;0;0;0;0;3;0;3371;0;0;0;0;4;0;4577;0;0;0;0;5;0;9145;2;0;0;0;0;0;6;0;7396;2;0;0;0;0;0;7;0;6097;0;0;0;0;8;0;6045;0;0;0;0;9;0;3225;0;0;0;0
28.01.19;18:25:00;1;415;9721;0;2;0;5430;0;0;0;0;3;0;3371;0;0;0;0;4;0;4577;0;0;0;0;5;0;9145;2;0;0;0;0;0;6;0;7396;2;0;0;0;0;0;7;0;6097;0;0;0;0;8;0;6045;0;0;0;0;9;0;3225;0;0;0;0
28.01.19;18:20:00;1;769;9683;0;2;0;5430;0;0;0;0;3;0;3371;0;0;0;0;4;0;4577;0;0;0;0;5;0;9145;2;0;0;0;0;0;6;0;7396;2;0;0;0;0;0;7;0;6097;0;0;0;0;8;0;6045;0;0;0;0;9;0;3225;0;0;0;0
28.01.19;18:15:00;1;396;9626;0;2;0;5430;0;0;0;0;3;0;3371;0;0;0;0;4;0;4577;0;0;0;0;5;0;9145;2;0;0;0;0;0;6;0;7396;2;0;0;0;0;0;7;0;6097;0;0;0;0;8;0;6045;0;0;0;0;9;0;3225;0;0;0;0
28.01.19;18:10:00;1;395;9593;0;2;0;5430;0;0;0;0;3;0;3371;0;0;0;0;4;0;4577;0;0;0;0;5;0;9145;2;0;0;0;0;0;6;0;7396;2;0;0;0;0;0;7;0;6097;0;0;0;0;8;0;6045;0;0;0;0;9;0;3225;0;0;0;0
28.01.19;18:05:00;1;774;9543;0;2;0;5430;0;0;0;0;3;0;3371;0;0;0;0;4;0;4577;0;0;0;0;5;0;9145;2;0;0;0;0;0;6;0;7396;2;0;0;0;0;0;7;0;6097;0;0;0;0;8;0;6045;0;0;0;0;9;0;3225;0;0;0;0
28.01.19;18:00:00;1;1326;9486;0;2;0;5430;0;0;0;0;3;0;3371;0;0;0;0;4;0;4577;0;0;0;0;5;0;9145;2;0;0;0;0;0;6;0;7396;2;0;0;0;0;0;7;0;6097;0;0;0;0;8;0;6045;0;0;0;0;9;0;3225;0;0;0;0
28.01.19;17:55:00;1;1217;9401;0;2;0;5430;0;0;0;0;3;0;3371;0;0;0;0;4;0;4577;0;0;0;0;5;0;9145;2;0;0;0;0;0;6;0;7396;2;0;0;0;0;0;7;0;6097;0;0;0;0;8;0;6045;0;0;0;0;9;0;3225;0;0;0;0
28.01.19;17:50:00;1;1357;9278;0;2;0;5430;0;0;0;0;3;0;3371;0;0;0;0;4;0;4577;0;0;0;0;5;0;9145;2;0;0;0;0;0;6;0;7396;2;0;0;0;0;0;7;0;6097;0;0;0;0;8;0;6045;0;0;0;0;9;0;3225;0;0;0;0
28.01.19;17:45:00;1;1884;9143;0;2;0;5430;0;0;0;0;3;0;3371;0;0;0;0;4;0;4577;0;0;0;0;5;0;9145;2;0;0;0;0;0;6;0;7396;2;0;0;0;0;0;7;0;6097;0;0;0;0;8;0;6045;0;0;0;0;9;0;3225;0;0;0;0
28.01.19;17:40:00;1;2324;8981;0;2;0;5430;0;0;0;0;3;0;3371;0;0;0;0;4;0;4577;0;0;0;0;5;0;9145;2;0;0;0;0;0;6;0;7396;2;0;0;0;0;0;7;0;6097;0;0;0;0;8;0;6045;0;0;0;0;9;0;3225;0;0;0;0
28.01.19;17:35:00;1;1780;8790;0;2;0;5430;0;0;0;0;3;0;3371;0;0;0;0;4;0;4577;0;0;0;0;5;0;9145;2;0;0;0;0;0;6;0;7396;2;0;0;0;0;0;7;0;6097;0;0;0;0;8;0;6045;0;0;0;0;9;0;3225;0;0;0;0
28.01.19;17:30:00;1;1622;8674;0;2;0;5430;0;0;0;0;3;0;3371;0;0;0;0;4;0;4577;0;0;0;0;5;0;9145;2;0;0;0;0;0;6;0;7396;2;0;0;0;0;0;7;0;6097;0;0;0;0;8;0;6045;0;0;0;0;9;0;3225;0;0;0;0
28.01.19;17:25:00;1;1347;8541;0;2;0;5430;0;0;0;0;3;0;3371;0;0;0;0;4;0;4577;0;0;0;0;5;0;9145;2;0;0;0;0;0;6;0;7396;2;0;0;0;0;0;7;0;6097;0;0;0;0;8;0;6045;0;0;0;0;9;0;3225;0;0;0;0
28.01.19;17:20:00;1;371;8469;0;2;0;5430;0;0;193;6;3;0;3371;6;0;290;12;4;0;4577;0;0;8;1;5;0;9145;2;0;0;0;0;0;6;0;7396;2;0;0;0;0;0;7;0;6097;0;0;0;0;8;0;6045;0;0;0;0;9;0;3225;0;0;0;0
28.01.19;17:15:00;1;606;8436;0;2;0;5430;6;0;308;9;3;0;3371;6;0;361;12;4;0;4577;2;0;80;8;5;0;9145;2;0;0;55;54;3;6;0;7396;1;0;0;0;0;0;7;0;6097;0;0;0;0;8;0;6045;0;0;0;0;9;0;3225;0;0;0;0
28.01.19;17:10:00;1;1482;8389;0;2;0;5430;6;0;347;9;3;0;3371;6;1;404;12;4;0;4577;1;0;119;8;5;0;9145;2;0;0;310;314;16;6;0;7396;23;1;8;432;180;18;7;0;6097;0;0;175;8;8;0;6045;0;0;176;8;9;0;3225;0;0;232;7
28.01.19;17:05:00;1;534;8290;0;2;0;5430;6;0;372;9;3;0;3371;6;4;423;12;4;0;4577;1;0;157;8;5;0;9145;23;0;0;401;439;20;6;0;7396;23;1;10;181;530;19;7;0;6097;6;0;317;13;8;0;6045;6;0;321;12;9;0;3225;6;0;336;9
28.01.19;17:00:00;1;532;8246;0;2;0;5430;6;0;389;9;3;0;3371;6;2;473;12;4;0;4577;1;0;189;9;5;0;9145;26;0;0;420;602;20;6;0;7396;23;0;9;584;181;19;7;0;6097;6;0;375;13;8;0;6045;6;0;379;12;9;0;3225;6;0;402;9
28.01.19;16:55:00;1;582;8191;0;2;0;5430;6;0;402;9;3;0;3371;6;3;480;12;4;0;4577;1;0;213;9;5;10;9145;4;0;0;416;655;21;6;0;7396;23;0;9;182;577;20;7;0;6097;6;0;407;13;8;0;6045;6;0;409;13;9;0;3225;3;0;434;9
28.01.19;16:50:00;1;259;8155;0;2;2;5430;6;7;406;9;3;2;3371;3;9;486;12;4;0;4577;3;0;214;10;5;65;9145;1;11;11;396;627;22;6;17;7396;1;4;18;490;442;21;7;0;6097;6;1;444;13;8;1;6045;6;1;438;13;9;1;3225;6;1;480;9
28.01.19;16:45:00;1;516;8133;0;2;38;5430;6;63;377;10;3;9;3370;6;21;495;12;4;1;4577;3;1;199;10;5;114;9138;4;40;28;389;621;22;6;66;7394;4;12;60;377;499;21;7;0;6097;6;0;503;14;8;3;6045;6;5;475;13;9;1;3225;6;5;520;9
28.01.19;16:40:00;1;228;8087;0;2;163;5427;4;198;387;10;3;40;3370;6;57;511;13;4;25;4576;3;26;197;10;5;170;9128;4;67;32;389;621;22;6;103;7389;4;20;70;377;556;21;7;57;6097;4;92;432;14;8;37;6045;6;64;439;14;9;4;3225;6;13;520;10
28.01.19;16:35:00;1;328;8066;0;2;564;5414;4;614;395;10;3;277;3366;4;319;442;13;4;179;4574;3;187;214;10;5;416;9114;4;201;174;412;641;22;6;268;7379;4;62;168;378;578;21;7;122;6092;4;169;492;14;8;79;6042;4;121;447;14;9;4;3225;6;10;553;10
28.01.19;16:30:00;1;578;8038;0;2;329;5368;4;369;380;10;3;158;3344;4;191;376;13;4;148;4560;5;154;200;10;5;356;9078;4;169;135;400;631;22;6;230;7356;4;46;126;378;562;21;7;126;6083;4;176;479;14;8;77;6035;4;125;474;14;9;5;3224;6;8;557;10
28.01.19;16:25:00;1;368;7984;0;2;101;5339;4;134;363;10;3;50;3330;4;82;407;13;4;41;4547;3;43;197;10;5;201;9051;4;89;61;389;621;22;6;123;7338;4;32;104;377;550;21;7;69;6072;4;112;433;14;8;68;6029;4;102;417;14;9;5;3224;4;10;551;10
28.01.19;16:20:00;1;371;7954;0;2;126;5331;4;161;384;10;3;69;3326;4;107;477;13;4;52;4544;3;54;197;10;5;233;9034;4;102;92;389;621;22;6;141;7327;4;34;112;378;553;21;7;114;6066;4;145;429;14;8;104;6023;4;136;418;14;9;15;3223;3;23;537;10
28.01.19;16:15:00;1;611;7922;0;2;184;5320;4;222;392;10;3;104;3321;4;142;511;13;4;105;4540;3;109;219;11;5;312;9014;4;147;127;391;621;22;6;194;7315;4;48;134;378;559;21;7;171;6057;4;203;452;14;8;150;6015;4;191;453;14;9;29;3222;6;40;559;11
28.01.19;16:10:00;1;327;7870;0;2;336;5305;4;378;389;11;3;176;3312;4;221;527;13;4;192;4531;5;200;242;11;5;516;8987;4;259;214;405;624;22;6;320;7298;4;97;237;378;576;22;7;402;6042;4;444;482;14;8;318;6002;4;360;492;14;9;96;3220;4;129;528;11
28.01.19;16:05:00;1;299;7842;0;2;264;5278;4;305;392;11;3;159;3297;4;201;498;13;4;197;4515;5;206;234;11;5;507;8944;4;250;213;412;627;22;6;316;7271;4;107;257;377;571;22;7;252;6009;4;302;452;14;8;250;5976;4;295;477;14;9;125;3212;4;157;519;11
28.01.19;16:00:00;1;503;7809;0;2;311;5256;4;353;396;11;3;190;3284;4;231;501;14;4;242;4499;5;252;234;11;5;571;8901;4;288;237;399;635;22;6;361;7244;4;111;257;380;577;22;7;296;5988;4;338;481;14;8;288;5955;4;337;485;14;9;158;3201;4;189;530;11
28.01.19;15:55:00;1;278;7771;0;2;239;5230;4;279;386;11;3;143;3268;4;185;517;14;4;183;4479;5;191;226;11;5;493;8853;4;231;200;405;658;22;6;353;7214;4;141;272;539;570;22;7;233;5963;4;267;465;14;8;229;5931;4;264;432;14;9;121;3188;4;152;517;11
28.01.19;15:50:00;1;555;7748;0;2;258;5209;4;296;387;11;3;155;3256;4;197;501;14;4;198;4463;5;206;231;11;5;545;8813;4;272;228;411;636;22;6;408;7184;4;158;266;579;579;22;7;251;5943;4;291;474;14;8;247;5911;4;294;463;14;9;132;3178;4;163;520;12
28.01.19;15:45:00;1;318;7697;0;2;259;5188;4;299;381;11;3;156;3243;4;197;517;14;4;201;4447;5;209;236;11;5;540;8767;4;277;226;401;627;22;6;410;7150;4;160;273;577;571;22;7;248;5923;4;299;462;15;8;255;5891;4;301;466;14;9;136;3167;4;166;531;12
28.01.19;15:40:00;1;318;7670;0;2;246;5166;4;287;396;12;3;149;3230;4;192;495;14;4;188;4430;5;195;233;11;5;536;8722;4;273;222;411;622;23;6;402;7116;4;155;260;575;572;22;7;242;5902;4;289;449;15;8;247;5869;4;289;449;14;9;129;3155;4;161;511;12
28.01.19;15:35:00;1;603;7644;0;2;300;5146;4;344;395;12;3;184;3218;4;228;511;14;4;245;4414;5;255;234;12;5;654;8677;4;328;280;400;686;23;6;492;7082;4;195;311;585;578;22;7;307;5882;4;348;444;15;8;306;5849;4;352;470;14;9;165;3145;4;197;517;12
28.01.19;15:30:00;1;412;7593;0;2;410;5121;4;457;406;12;3;251;3202;4;299;518;14;4;343;4394;5;358;241;12;5;883;8620;4;447;375;418;675;23;6;671;7040;4;294;415;598;583;22;7;430;5857;4;471;474;15;8;418;5823;4;469;480;15;9;226;3131;4;260;508;12
28.01.19;15:25:00;1;391;7560;0;2;526;5087;4;576;405;12;3;325;3182;4;375;513;15;4;449;4366;5;467;243;12;5;1124;8545;4;561;474;435;696;23;6;840;6983;4;391;522;597;584;22;7;573;5821;4;625;488;15;8;569;5789;4;619;487;15;9;303;3112;4;345;536;13
28.01.19;15:20:00;1;382;7504;0;2;667;5043;4;723;414;13;3;414;3155;4;468;529;15;4;554;4328;5;577;246;12;5;1332;8450;4;677;567;425;693;23;6;1007;6911;4;486;611;607;591;22;7;789;5774;4;845;489;15;8;784;5742;4;832;487;15;9;409;3087;4;455;540;13
28.01.19;15:15:00;1;344;7472;0;2;719;4988;4;774;411;13;3;447;3120;4;503;532;15;4;602;4282;5;627;240;12;5;1403;8340;4;713;602;437;697;23;6;1064;6827;4;500;626;600;588;22;7;822;5709;4;859;489;15;8;806;5677;4;860;485;15;9;425;3054;4;470;529;13
28.01.19;15:10:00;1;803;7443;0;2;837;4928;4;901;416;13;3;528;3083;4;586;526;15;4;700;4232;5;729;247;12;5;1613;8223;4;841;701;435;695;23;6;1267;6739;4;602;729;613;589;22;7;1033;5641;4;1099;482;15;8;1011;5611;4;1070;480;15;9;532;3018;4;585;540;13
28.01.19;15:05:00;1;372;7392;0;2;1053;4858;4;1120;420;13;3;650;3039;4;714;526;15;4;837;4174;5;871;248;12;5;1913;8086;4;1004;832;440;687;22;6;1469;6635;4;703;830;607;595;22;7;1433;5555;4;1519;472;15;8;1284;5527;4;1353;496;14;9;673;2974;4;730;546;13
28.01.19;15:00:00;1;501;7363;0;2;1391;4773;4;1475;420;12;3;921;2986;4;996;529;15;4;1081;4105;5;1126;255;12;5;2637;7921;4;1419;1165;434;707;22;6;2016;6510;4;966;1077;614;593;21;7;3004;5434;4;3163;489;15;8;2832;5423;4;2967;453;14;9;1336;2920;4;1426;548;13
28.01.19;14:55:00;1;319;7313;0;2;851;4658;4;909;416;12;3;541;2910;4;600;530;15;4;697;4015;5;726;245;12;5;1618;7696;4;844;710;429;697;22;6;1242;6340;4;606;735;606;597;21;7;1104;5181;4;1163;474;15;8;1128;5186;4;1196;485;14;9;645;2806;4;701;540;12
28.01.19;14:50:00;1;321;7286;0;2;787;4584;4;844;413;12;3;493;2863;4;550;522;14;4;675;3956;5;703;246;12;5;1559;7562;4;803;679;436;714;22;6;1184;6238;4;560;685;606;595;21;7;904;5083;4;955;481;15;8;891;5084;4;953;485;14;9;478;2747;4;527;542;12
28.01.19;14:45:00;1;595;7247;0;2;744;4519;4;798;408;12;3;466;2822;4;520;527;14;4;630;3899;5;656;248;12;5;1478;7433;4;769;639;436;719;22;6;1128;6139;4;547;682;600;597;21;7;851;5007;4;908;493;15;8;841;5010;4;892;475;14;9;451;2707;4;501;535;12
28.01.19;14:40:00;1;272;7210;0;2;716;4457;4;771;410;12;3;451;2783;4;506;523;14;4;605;3847;5;630;244;12;5;1401;7308;4;728;605;432;703;22;6;1074;6045;4;516;650;606;590;21;7;809;4936;4;855;484;15;8;798;4940;4;854;484;14;9;425;2669;4;472;532;12
28.01.19;14:35:00;1;514;7176;0;2;604;4396;4;658;406;12;3;377;2745;4;430;516;14;4;509;3796;5;531;244;12;5;1202;7192;4;627;514;430;707;22;6;916;5956;4;425;550;603;589;21;7;631;4868;4;689;483;15;8;629;4873;4;684;490;14;9;335;2633;4;377;533;12
28.01.19;14:30:00;1;311;7133;0;2;586;4346;4;637;409;12;3;364;2714;4;417;515;14;4;496;3753;5;517;241;12;5;1183;7091;4;605;504;428;702;22;6;906;5880;4;405;528;606;587;22;7;620;4815;4;672;486;15;8;628;4820;4;677;487;14;9;334;2605;4;376;532;12
28.01.19;14:25:00;1;606;7098;0;2;540;4296;4;590;408;12;3;333;2683;4;386;511;14;4;456;3711;5;474;243;12;5;1109;6994;4;563;472;424;689;22;6;832;5805;4;369;493;600;588;22;7;540;4763;4;590;481;15;8;539;4768;4;592;484;15;9;283;2577;4;325;528;12
28.01.19;14:20:00;1;602;7055;0;2;567;4252;4;618;410;12;3;352;2655;4;404;511;15;4;476;3673;5;496;242;12;5;1163;6901;4;601;497;425;691;22;6;882;5735;4;390;510;602;588;22;7;586;4718;4;646;491;15;8;595;4723;4;647;490;15;9;317;2554;4;360;531;12
28.01.19;14:15:00;1;279;7005;0;2;584;4204;4;638;408;12;3;363;2626;4;417;530;15;4;495;3634;5;516;242;12;5;1212;6804;4;621;516;429;700;22;6;914;5661;4;458;593;601;590;22;7;617;4668;4;661;484;15;8;618;4673;4;667;487;15;9;325;2527;4;367;543;12
28.01.19;14:10:00;1;516;6974;0;2;628;4155;4;683;410;13;3;393;2596;4;447;519;15;4;538;3592;5;561;244;12;5;1296;6702;4;662;555;439;694;22;6;987;5584;4;439;557;606;589;22;7;658;4617;4;710;494;15;8;663;4621;4;714;490;15;9;354;2500;4;398;527;13
28.01.19;14:05:00;1;583;6935;0;2;634;4103;4;686;406;13;3;393;2563;4;446;525;15;4;539;3548;5;561;245;13;5;1323;6595;4;669;561;433;702;23;6;987;5503;4;457;572;603;590;22;7;673;4562;4;717;486;15;8;668;4566;4;717;483;15;9;358;2470;4;401;535;13
28.01.19;14:00:00;1;229;6888;0;2;691;4050;4;751;409;13;3;434;2530;4;488;527;15;4;594;3503;5;618;244;13;5;1413;6485;4;726;608;434;707;23;6;1069;5420;4;480;592;605;586;22;7;704;4506;4;762;488;15;8;718;4511;4;768;483;15;9;384;2440;4;429;535;13